Weather Roundup
Issued by NWS

Home | Current Version | Previous Version | Text Only | Print | Product List | Glossary On
Versions: 1 2 3 4 5 6 7 8 9 10 11 12 13 14 15 16 17 18 19 20 21 22 23 24 25 26 27 28 29 30 31 32 33 34 35 36 37 38 39 40 41 42 43 44 45 46 47 48 49 50
563
NZUS93 KARX 212259
HRRWXR

CURRENT HOURLY OBSERVATIONS ACROSS
MUCH OF THE UPPER MISSISSIPPI VALLEY
NATIONAL WEATHER SERVICE LA CROSSE WI
600 PM CDT FRI JUL 21 2017


...SOUTHEAST MINNESOTA...


CITY           SKY/WX    TMP DP  RH WIND       PRES   REMARKS
ROCHESTER      MOSUNNY   73  68  84 SE9       29.87F
ROCHESTER/MAYO FAIR      74  66  75 SE9G16    29.87F
WINONA         CLOUDY    73  68  83 SE5       29.87F
AUSTIN         MOSUNNY   73  66  78 SE6       29.85F
ALBERT LEA     PTSUNNY   75  66  73 SE10      29.84F
DODGE CENTER   MOSUNNY   75  64  69 SE10      29.86F
PRESTON        PTSUNNY   71  66  84 SE8       29.87F
OWATONNA       SUNNY     79  66  65 SE14G21   29.84F
FARIBAULT      SUNNY     81  68  65 SE8       29.85F
$$

...ELSEWHERE IN MINNESOTA...


CITY           SKY/WX    TMP DP  RH WIND       PRES   REMARKS
MINNEAPOLIS    PTSUNNY   83  66  56 S12       29.83F
INTNL FALLS    CLOUDY    72  61  68 E6        29.83S
DULUTH         MOSUNNY   74  64  71 E12       29.86R
RED WING       MOSUNNY   81  64  57 SE6       29.84F
REDWOOD FALLS  SUNNY     82  70  66 S16       29.81F
MANKATO        MOSUNNY   79  69  71 S10       29.83F
WORTHINGTON    MOSUNNY   79  72  79 SE10      29.84F
FAIRMONT       MOSUNNY   78  70  76 SE10      29.83F
$$

...SOUTHWEST WISCONSIN...


CITY           SKY/WX    TMP DP  RH WIND       PRES   REMARKS
LA CROSSE      CLOUDY    74  69  85 SE7       29.86F
PRAIRIE DU CHI RAIN      70  68  95 CALM      29.89S
BOSCOBEL       TSTM      71  70  96 E5        29.88F VSB 1/2
LONE ROCK      CLOUDY    73  71  93 E8        29.88F
PLATTEVILLE    MOSUNNY   72  72 100 NE12      29.89F
FORT MC COY    CLOUDY    67  67  97 CALM      29.90S
MAUSTON-NEW LI LGT RAIN  72  71  98 S10       29.90F
VIROQUA          N/A     69  69 100 SE6       29.92F
WIS DELLS      LGT RAIN  72  70  95 SE5       29.92F
$$

...ELSEWHERE IN WISCONSIN...


CITY           SKY/WX    TMP DP  RH WIND       PRES   REMARKS
MILWAUKEE      LGT RAIN  75  71  87 CALM      29.94R
MADISON        RAIN      74  74 100 E5        29.93R FOG
GREEN BAY      LGT RAIN  77  70  79 SW6       29.92S
EAU CLAIRE     NOT AVBL
BLACK RVR FLS  MOCLDY    73  73 100 SE3       29.88S
MEDFORD        CLOUDY    74  65  73 S9        29.91F
WAUSAU         CLOUDY    78  69  73 S8        29.90F
WIS RAPIDS     CLOUDY    74  72  93 CALM      29.92F
MARSHFIELD     CLOUDY    75  67  76 S7        29.91F
RICE LAKE      CLOUDY    76  66  71 S6        29.89F
$$

...NORTHEAST IOWA...


CITY           SKY/WX    TMP DP  RH WIND       PRES   REMARKS
WATERLOO       CLOUDY    75  69  81 E8        29.82F
DUBUQUE        CLOUDY    73  70  90 NE12      29.86F
DECORAH        CLOUDY    72  70  94 E10       29.86F
MASON CITY     CLOUDY    73  69  87 E10       29.86F
CHARLES CITY   MOSUNNY   73  73 100 SE9       29.86F
OELWEIN        CLOUDY    72  72 100 E9        29.85F
$$

...ELSEWHERE IN IOWA...


CITY           SKY/WX    TMP DP  RH WIND       PRES   REMARKS
DES MOINES     CLOUDY    97  73  45 S15       29.76F HX 107
IOWA CITY      TSTM      73  72  96 S28G40    29.84F VSB 3/4
FORT DODGE     CLOUDY    75  72  88 E12       29.80F
MARSHALLTOWN   CLOUDY    78  75  90 NE10      29.82S
CEDAR RAPIDS   LGT RAIN  73  73 100 S12       29.79F
$$

...NORTHERN ILLINOIS...


CITY           SKY/WX    TMP DP  RH WIND       PRES   REMARKS
CHICAGO-OHARE  CLOUDY    78  70  76 E14       29.90F
CHICAGO-MIDWAY CLOUDY    83  70  64 NE14      29.90F
MOLINE         SUNNY     88  76  67 S5        29.81F HX  99
ROCKFORD       CLOUDY    80  72  76 SE6       29.90F
PEORIA         SUNNY     93  76  57 S13       29.87S HX 105
$$

NOTE: "FAIR" INDICATES FEW OR NO CLOUDS BELOW 12,000 FEET WITH NO
SIGNIFICANT WEATHER AND/OR OBSTRUCTIONS TO VISIBILITY. WIND
SPEEDS ARE IN MILES-PER-HOUR.




USA.gov is the U.S. government's official web portal to all federal, state and local government web resources and services.